User: anonymous   Login
Location: Ostrava
(49.8330°N, 18.2830°E)
Time: 01:47:29
(UTC+01:00)
Language:

NOAA 19 - Orbit

View from above orbital plane
View from above orbital plane
View from above satellite
View from above satellite

Ground track
Ground track

The orbit data is extracted from the following two-line orbital elements,

1 33591U 09005A   18051.95098958 +.00000079 +00000-0 +68194-4 0  9991
2 33591 099.1288 027.7530 0013114 295.4339 064.5475 14.12255609465505
Epoch (UTC): 20 February 2018 22:49:25
Eccentricity: 0.0013114
inclination: 99.1288°
perigee height: 842 km
apogee height: 861 km
right ascension of ascending node: 27.7530°
argument of perigee: 295.4339°
revolutions per day: 14.12255609
mean anomaly at epoch: 64.5475°
orbit number at epoch: 46550

The dashed part of the orbit path shows where the satellite is in the earth's shadow,  

DLR